sat.trackr.live / text

‹ back to catalog

STARLINK-2134

NORAD 47407 · 2021-005BL

PAYLOAD ACTIVE UNKNOWN

§ Identity

Operator
Country
US
Launch date
2021-01-20
Launch site
AFETR
Launch vehicle
Mass (kg)
RCS (m²)

Purposes: comms

External: N2YO · Heavens-Above · Gunter

§ Orbital elements

Epoch: 2026-09-20T03:19:15.485952Z

Period
93.83 min
Inclination
53.1575°
Eccentricity
0.0003756
Mean motion
15.34652355 rev/d
Perigee alt
459.4 km
Apogee alt
464.5 km
Semi-major
6,840.1 km
B*
6.0027e-4
RAAN
213.4034°
Arg perigee
74.8917°
Mean anomaly
285.2501°
Rev number
31,315

§ Raw data

STARLINK-21341 47407U 21005BL  26263.13837368  .00020124  00000+0  60027-3 0  99942 47407  53.1575 213.4034 0003756  74.8917 285.2501 15.34652355313159

JSON: /api/v1/satellites/47407 · /tle

For live sub-satellite position, see the globe view (requires WebGL).

§ Visibility from observer

Set your observer location to see the next 7 days of passes ≥ 10°. The values pass through the URL so the page stays shareable.

No JS? Fill the form by hand. The geolocation button needs JavaScript.